| time (UTC) | temp C | wind direction | speed KPH | gust KPH | rain 1hr cm | rain 24hr cm | rain mn cm | humidity % | barometer mb |
| 20260906124555 | 19 | 215 | 0.0 | 1.6 | 0.00 | 0.00 | 0.00 | 99 | 1020.4 |
| 20260906124051 | 18 | 298 | 0.0 | 0.0 | 0.00 | 0.00 | 0.00 | 99 | 1020.5 |
| 20260906123550 | 18 | 287 | 0.0 | 0.0 | 0.00 | 0.00 | 0.00 | 99 | 1020.3 |
| 20260906123045 | 18 | 244 | 0.0 | 0.0 | 0.00 | 0.00 | 0.00 | 99 | 1020.2 |
| 20260906122544 | 18 | 245 | 0.0 | 0.0 | 0.00 | 0.00 | 0.00 | 99 | 1020.1 |
| 20260906122041 | 18 | 246 | 0.0 | 0.0 | 0.00 | 0.00 | 0.00 | 99 | 1020.2 |
| 20260906121536 | 17 | 246 | 0.0 | 0.0 | 0.00 | 0.00 | 0.00 | 99 | 1020.2 |
| 20260906121032 | 17 | 246 | 0.0 | 0.0 | 0.00 | 0.00 | 0.00 | 99 | 1020.0 |
| 20260906120527 | 17 | 247 | 0.0 | 0.0 | 0.00 | 0.00 | 0.00 | 99 | 1019.7 |
| 20260906120025 | 17 | 249 | 0.0 | 0.0 | 0.00 | 0.00 | 0.00 | 99 | 1019.8 |
| 20260906115524 | 17 | 249 | 0.0 | 0.0 | 0.00 | 0.00 | 0.00 | 99 | 1019.7 |
| 20260906115019 | 17 | 250 | 0.0 | 0.0 | 0.00 | 0.00 | 0.00 | 99 | 1019.8 |
| 20260906114514 | 17 | 251 | 0.0 | 0.0 | 0.00 | 0.00 | 0.00 | 99 | 1019.7 |
| 20260906114010 | 17 | 255 | 0.0 | 0.0 | 0.00 | 0.00 | 0.00 | 99 | 1019.6 |
| 20260906113508 | 17 | 248 | 0.0 | 0.0 | 0.00 | 0.00 | 0.00 | 99 | 1019.4 |
| 20260906113004 | 17 | 254 | 0.0 | 0.0 | 0.00 | 0.00 | 0.00 | 99 | 1019.5 |
| 20260906112459 | 17 | 249 | 0.0 | 0.0 | 0.00 | 0.00 | 0.00 | 99 | 1019.3 |
| 20260906111955 | 17 | 249 | 0.0 | 0.0 | 0.00 | 0.00 | 0.00 | 99 | 1019.4 |
| 20260906111454 | 17 | 248 | 0.0 | 0.0 | 0.00 | 0.00 | 0.00 | 99 | 1019.4 |
| 20260906110949 | 17 | 248 | 0.0 | 0.0 | 0.00 | 0.00 | 0.00 | 99 | 1019.5 |
| 20260906110444 | 17 | 252 | 0.0 | 0.0 | 0.00 | 0.00 | 0.00 | 99 | 1019.4 |
| 20260906105943 | 17 | 264 | 0.0 | 0.0 | 0.00 | 0.00 | 0.00 | 99 | 1019.2 |
| 20260906105439 | 17 | 257 | 0.0 | 0.0 | 0.00 | 0.00 | 0.00 | 99 | 1019.3 |
| 20260906104935 | 17 | 252 | 0.0 | 0.0 | 0.00 | 0.00 | 0.00 | 99 | 1019.3 |
| 20260906104434 | 17 | 279 | 0.0 | 1.6 | 0.00 | 0.00 | 0.00 | 99 | 1019.3 |
| 20260906103933 | 17 | 262 | 0.0 | 0.0 | 0.00 | 0.00 | 0.00 | 99 | 1019.3 |
| 20260906103431 | 17 | 253 | 0.0 | 1.6 | 0.00 | 0.00 | 0.00 | 99 | 1019.2 |
| 20260906102927 | 17 | 256 | 0.0 | 0.0 | 0.00 | 0.00 | 0.00 | 99 | 1019.1 |
| 20260906102426 | 17 | 299 | 0.0 | 0.0 | 0.00 | 0.00 | 0.00 | 99 | 1019.2 |
| 20260906101921 | 17 | 266 | 0.0 | 0.0 | 0.00 | 0.00 | 0.00 | 99 | 1019.1 |
| 20260906101416 | 17 | 267 | 0.0 | 0.0 | 0.00 | 0.00 | 0.00 | 99 | 1019.1 |
| 20260906100912 | 17 | 254 | 0.0 | 0.0 | 0.00 | 0.00 | 0.00 | 99 | 1018.9 |
| 20260906100412 | 17 | 260 | 0.0 | 0.0 | 0.00 | 0.00 | 0.00 | 99 | 1018.8 |
| 20260906095906 | 17 | 257 | 0.0 | 0.0 | 0.00 | 0.00 | 0.00 | 99 | 1018.8 |
| 20260906095402 | 17 | 250 | 0.0 | 0.0 | 0.00 | 0.00 | 0.00 | 99 | 1018.7 |
| 20260906094901 | 17 | 254 | 0.0 | 0.0 | 0.00 | 0.00 | 0.00 | 99 | 1018.6 |
| 20260906094356 | 17 | 268 | 0.0 | 1.6 | 0.00 | 0.00 | 0.00 | 99 | 1019.0 |
| 20260906093853 | 17 | 263 | 0.0 | 0.0 | 0.00 | 0.00 | 0.00 | 99 | 1018.9 |
| 20260906093349 | 17 | 271 | 1.6 | 1.6 | 0.00 | 0.00 | 0.00 | 99 | 1018.8 |
| 20260906092848 | 17 | 308 | 1.6 | 3.2 | 0.00 | 0.00 | 0.00 | 99 | 1018.8 |
| 20260906092343 | 17 | 276 | 3.2 | 3.2 | 0.00 | 0.00 | 0.00 | 99 | 1018.8 |
| 20260906091839 | 17 | 287 | 1.6 | 1.6 | 0.00 | 0.00 | 0.00 | 99 | 1018.6 |
| 20260906091335 | 17 | 299 | 1.6 | 1.6 | 0.00 | 0.00 | 0.00 | 99 | 1018.9 |
| 20260906090831 | 17 | 263 | 0.0 | 0.0 | 0.00 | 0.00 | 0.00 | 99 | 1018.9 |
| 20260906090330 | 17 | 264 | 0.0 | 0.0 | 0.00 | 0.00 | 0.00 | 99 | 1018.9 |
| 20260906085830 | 17 | 257 | 0.0 | 0.0 | 0.00 | 0.00 | 0.00 | 99 | 1018.7 |
| 20260906085330 | 18 | 260 | 1.6 | 1.6 | 0.00 | 0.00 | 0.00 | 99 | 1018.8 |
| 20260906084825 | 18 | 282 | 1.6 | 1.6 | 0.00 | 0.00 | 0.00 | 99 | 1018.9 |
| 20260906084324 | 18 | 276 | 0.0 | 1.6 | 0.00 | 0.00 | 0.00 | 99 | 1018.8 |
| 20260906083819 | 18 | 331 | 1.6 | 3.2 | 0.00 | 0.00 | 0.00 | 99 | 1019.0 |
| 20260906083315 | 18 | 340 | 3.2 | 3.2 | 0.00 | 0.00 | 0.00 | 99 | 1018.9 |
| 20260906082814 | 18 | 271 | 0.0 | 0.0 | 0.00 | 0.00 | 0.00 | 99 | 1018.7 |
| 20260906082310 | 18 | 274 | 1.6 | 1.6 | 0.00 | 0.00 | 0.00 | 99 | 1018.8 |
| 20260906081805 | 18 | 274 | 1.6 | 1.6 | 0.00 | 0.00 | 0.00 | 99 | 1018.6 |
| 20260906081301 | 18 | 260 | 0.0 | 1.6 | 0.00 | 0.00 | 0.00 | 98 | 1018.9 |
| 20260906080757 | 18 | 317 | 3.2 | 3.2 | 0.00 | 0.00 | 0.00 | 98 | 1018.9 |
| 20260906080254 | 18 | 278 | 1.6 | 1.6 | 0.00 | 0.00 | 0.00 | 98 | 1018.6 |
| 20260906075753 | 18 | 322 | 1.6 | 3.2 | 0.00 | 0.00 | 0.00 | 98 | 1018.5 |
| 20260906075253 | 17 | 272 | 0.0 | 1.6 | 0.00 | 0.00 | 0.00 | 98 | 1018.7 |
| 20260906074748 | 17 | 254 | 0.0 | 0.0 | 0.00 | 0.00 | 0.00 | 98 | 1018.4 |
| 20260906074247 | 18 | 253 | 0.0 | 0.0 | 0.00 | 0.00 | 0.00 | 98 | 1018.8 |
| 20260906073742 | 18 | 251 | 0.0 | 0.0 | 0.00 | 0.00 | 0.00 | 98 | 1018.7 |
| 20260906073242 | 18 | 262 | 0.0 | 0.0 | 0.00 | 0.00 | 0.00 | 98 | 1018.6 |
| 20260906072738 | 18 | 254 | 0.0 | 0.0 | 0.00 | 0.00 | 0.00 | 98 | 1018.8 |
| 20260906072233 | 18 | 254 | 0.0 | 0.0 | 0.00 | 0.00 | 0.00 | 98 | 1018.7 |
| 20260906071729 | 18 | 265 | 0.0 | 0.0 | 0.00 | 0.00 | 0.00 | 98 | 1018.7 |
| 20260906071229 | 18 | 253 | 0.0 | 0.0 | 0.00 | 0.00 | 0.00 | 98 | 1018.6 |
| 20260906070726 | 18 | 253 | 0.0 | 0.0 | 0.00 | 0.00 | 0.00 | 98 | 1018.7 |
| 20260906070221 | 18 | 261 | 0.0 | 0.0 | 0.00 | 0.00 | 0.00 | 98 | 1018.5 |
| 20260906065720 | 18 | 253 | 0.0 | 0.0 | 0.00 | 0.00 | 0.00 | 98 | 1018.6 |
| 20260906065216 | 18 | 261 | 0.0 | 0.0 | 0.00 | 0.00 | 0.00 | 98 | 1018.5 |
| 20260906064711 | 18 | 285 | 1.6 | 1.6 | 0.00 | 0.00 | 0.00 | 98 | 1018.7 |
| 20260906064207 | 18 | 282 | 1.6 | 1.6 | 0.00 | 0.00 | 0.00 | 98 | 1018.7 |
| 20260906063701 | 18 | 266 | 0.0 | 1.6 | 0.00 | 0.00 | 0.00 | 98 | 1018.7 |
| 20260906063157 | 18 | 288 | 0.0 | 1.6 | 0.00 | 0.00 | 0.00 | 98 | 1018.7 |
| 20260906062653 | 18 | 264 | 0.0 | 0.0 | 0.00 | 0.00 | 0.00 | 98 | 1018.8 |
| 20260906062151 | 18 | 268 | 0.0 | 0.0 | 0.00 | 0.00 | 0.00 | 98 | 1018.6 |
| 20260906061648 | 18 | 276 | 0.0 | 1.6 | 0.00 | 0.00 | 0.00 | 98 | 1018.6 |
| 20260906061148 | 18 | 291 | 3.2 | 3.2 | 0.00 | 0.00 | 0.00 | 97 | 1018.8 |
| 20260906060645 | 18 | 345 | 3.2 | 3.2 | 0.00 | 0.00 | 0.00 | 97 | 1018.7 |
| 20260906060142 | 18 | 341 | 1.6 | 3.2 | 0.00 | 0.00 | 0.00 | 97 | 1018.5 |
| 20260906055637 | 18 | 264 | 0.0 | 0.0 | 0.00 | 0.00 | 0.00 | 97 | 1018.6 |
| 20260906055132 | 18 | 264 | 0.0 | 1.6 | 0.00 | 0.00 | 0.00 | 97 | 1018.5 |
| 20260906054627 | 18 | 266 | 0.0 | 1.6 | 0.00 | 0.00 | 0.00 | 97 | 1018.6 |
| 20260906054122 | 18 | 253 | 0.0 | 0.0 | 0.00 | 0.00 | 0.00 | 97 | 1018.5 |
| 20260906053619 | 18 | 258 | 0.0 | 0.0 | 0.00 | 0.00 | 0.00 | 97 | 1018.6 |
| 20260906053114 | 18 | 251 | 0.0 | 0.0 | 0.00 | 0.00 | 0.00 | 97 | 1018.4 |
| 20260906052609 | 19 | 326 | 1.6 | 1.6 | 0.00 | 0.00 | 0.00 | 97 | 1018.6 |
| 20260906052106 | 19 | 269 | 0.0 | 1.6 | 0.00 | 0.00 | 0.00 | 96 | 1018.4 |
| 20260906051602 | 19 | 330 | 1.6 | 1.6 | 0.00 | 0.00 | 0.00 | 96 | 1018.6 |
| 20260906051057 | 19 | 259 | 0.0 | 0.0 | 0.00 | 0.00 | 0.00 | 96 | 1018.5 |
| 20260906050552 | 19 | 253 | 0.0 | 0.0 | 0.00 | 0.00 | 0.00 | 96 | 1018.3 |
| 20260906050047 | 19 | 250 | 0.0 | 0.0 | 0.00 | 0.00 | 0.00 | 95 | 1018.4 |
| 20260906045545 | 19 | 264 | 0.0 | 0.0 | 0.00 | 0.00 | 0.00 | 95 | 1018.4 |
| 20260906045041 | 19 | 279 | 1.6 | 1.6 | 0.00 | 0.00 | 0.00 | 95 | 1018.3 |
| 20260906044536 | 19 | 295 | 0.0 | 0.0 | 0.00 | 0.00 | 0.00 | 95 | 1018.3 |
| 20260906044032 | 19 | 251 | 0.0 | 0.0 | 0.00 | 0.00 | 0.00 | 95 | 1018.2 |
| 20260906043527 | 20 | 290 | 0.0 | 0.0 | 0.00 | 0.00 | 0.00 | 95 | 1018.1 |
| 20260906043024 | 20 | 255 | 0.0 | 0.0 | 0.00 | 0.00 | 0.00 | 95 | 1017.8 |
| 20260906042522 | 20 | 254 | 0.0 | 0.0 | 0.00 | 0.00 | 0.00 | 95 | 1018.0 |
| 20260906042023 | 20 | 258 | 0.0 | 0.0 | 0.00 | 0.00 | 0.00 | 94 | 1018.0 |
| 20260906041519 | 20 | 306 | 0.0 | 1.6 | 0.00 | 0.00 | 0.00 | 94 | 1017.9 |
| 20260906041019 | 20 | 248 | 1.6 | 1.6 | 0.00 | 0.00 | 0.00 | 94 | 1018.0 |
| 20260906040514 | 20 | 250 | 0.0 | 0.0 | 0.00 | 0.00 | 0.00 | 94 | 1017.8 |
| 20260906040010 | 20 | 276 | 1.6 | 1.6 | 0.00 | 0.00 | 0.00 | 94 | 1017.8 |
| 20260906035504 | 20 | 346 | 0.0 | 1.6 | 0.00 | 0.00 | 0.00 | 94 | 1017.8 |
| 20260906035000 | 20 | 321 | 0.0 | 0.0 | 0.00 | 0.00 | 0.00 | 94 | 1017.7 |
| 20260906034500 | 20 | 44 | 1.6 | 1.6 | 0.00 | 0.00 | 0.00 | 93 | 1017.8 |
| 20260906033955 | 20 | 271 | 1.6 | 1.6 | 0.00 | 0.00 | 0.00 | 93 | 1017.8 |
| 20260906033450 | 20 | 294 | 0.0 | 1.6 | 0.00 | 0.00 | 0.00 | 93 | 1017.7 |
| 20260906032946 | 20 | 249 | 0.0 | 0.0 | 0.00 | 0.00 | 0.00 | 93 | 1017.8 |
| 20260906032443 | 20 | 276 | 0.0 | 0.0 | 0.00 | 0.00 | 0.00 | 93 | 1017.7 |
| 20260906031942 | 20 | 242 | 0.0 | 1.6 | 0.00 | 0.00 | 0.00 | 93 | 1017.9 |
| 20260906031438 | 20 | 242 | 0.0 | 0.0 | 0.00 | 0.00 | 0.00 | 92 | 1017.7 |
| 20260906030933 | 20 | 285 | 3.2 | 3.2 | 0.00 | 0.00 | 0.00 | 92 | 1017.6 |
| 20260906030428 | 20 | 247 | 0.0 | 0.0 | 0.00 | 0.00 | 0.00 | 92 | 1017.8 |
| 20260906025928 | 20 | 248 | 0.0 | 1.6 | 0.00 | 0.00 | 0.00 | 92 | 1017.5 |
| 20260906025422 | 20 | 292 | 0.0 | 1.6 | 0.00 | 0.00 | 0.00 | 92 | 1017.8 |
| 20260906024921 | 20 | 258 | 0.0 | 0.0 | 0.00 | 0.00 | 0.00 | 92 | 1017.8 |
| 20260906024420 | 20 | 265 | 1.6 | 1.6 | 0.00 | 0.00 | 0.00 | 92 | 1017.6 |
| 20260906023916 | 20 | 252 | 0.0 | 0.0 | 0.00 | 0.00 | 0.00 | 91 | 1017.7 |
| 20260906023412 | 20 | 186 | 0.0 | 0.0 | 0.00 | 0.00 | 0.00 | 91 | 1017.6 |
| 20260906022912 | 20 | 287 | 0.0 | 0.0 | 0.00 | 0.00 | 0.00 | 91 | 1017.5 |
| 20260906022407 | 20 | 4 | 0.0 | 1.6 | 0.00 | 0.00 | 0.00 | 91 | 1017.4 |
| 20260906021902 | 20 | 118 | 1.6 | 1.6 | 0.00 | 0.00 | 0.00 | 91 | 1017.8 |
| 20260906021403 | 20 | 258 | 0.0 | 0.0 | 0.00 | 0.00 | 0.00 | 91 | 1017.6 |
| 20260906020857 | 20 | 265 | 1.6 | 1.6 | 0.00 | 0.00 | 0.00 | 91 | 1017.7 |
| 20260906020356 | 20 | 52 | 0.0 | 1.6 | 0.00 | 0.00 | 0.00 | 90 | 1017.9 |
| 20260906015851 | 21 | 341 | 4.8 | 4.8 | 0.00 | 0.00 | 0.00 | 90 | 1017.9 |
| 20260906015350 | 21 | 260 | 1.6 | 1.6 | 0.00 | 0.00 | 0.00 | 90 | 1018.0 |
| 20260906014850 | 21 | 249 | 0.0 | 0.0 | 0.00 | 0.00 | 0.00 | 90 | 1018.0 |
| 20260906014350 | 21 | 257 | 0.0 | 0.0 | 0.00 | 0.00 | 0.00 | 90 | 1017.8 |
| 20260906013847 | 21 | 275 | 0.0 | 0.0 | 0.00 | 0.00 | 0.00 | 89 | 1017.7 |
| 20260906013342 | 21 | 353 | 1.6 | 1.6 | 0.00 | 0.00 | 0.00 | 89 | 1017.8 |
| 20260906012837 | 21 | 285 | 0.0 | 0.0 | 0.00 | 0.00 | 0.00 | 89 | 1017.7 |
| 20260906012332 | 21 | 117 | 0.0 | 1.6 | 0.00 | 0.00 | 0.00 | 89 | 1017.8 |
| 20260906011832 | 21 | 353 | 1.6 | 1.6 | 0.00 | 0.00 | 0.00 | 89 | 1017.8 |
| 20260906011327 | 21 | 254 | 1.6 | 1.6 | 0.00 | 0.00 | 0.00 | 89 | 1017.6 |
| 20260906010823 | 21 | 331 | 1.6 | 3.2 | 0.00 | 0.00 | 0.00 | 89 | 1017.9 |
| 20260906010319 | 21 | 319 | 0.0 | 1.6 | 0.00 | 0.00 | 0.00 | 89 | 1018.0 |
| 20260906005814 | 21 | 255 | 0.0 | 0.0 | 0.00 | 0.00 | 0.00 | 90 | 1017.8 |
| 20260906005313 | 21 | 344 | 1.6 | 1.6 | 0.00 | 0.00 | 0.00 | 90 | 1017.5 |
| 20260906004812 | 21 | 328 | 1.6 | 8.0 | 0.00 | 0.00 | 0.00 | 90 | 1017.4 |
| 20260906004312 | 21 | 259 | 0.0 | 1.6 | 0.00 | 0.00 | 0.00 | 90 | 1017.5 |
| 20260906003808 | 21 | 299 | 1.6 | 1.6 | 0.00 | 0.00 | 0.00 | 90 | 1017.5 |
| 20260906003303 | 21 | 2 | 3.2 | 3.2 | 0.00 | 0.00 | 0.00 | 90 | 1017.0 |
| 20260906002759 | 21 | 323 | 1.6 | 1.6 | 0.00 | 0.00 | 0.00 | 90 | 1017.2 |
| 20260906002258 | 21 | 339 | 8.0 | 8.0 | 0.00 | 0.00 | 0.00 | 90 | 1017.4 |
| 20260906001754 | 21 | 47 | 1.6 | 3.2 | 0.00 | 0.00 | 0.00 | 89 | 1017.0 |
| 20260906001253 | 21 | 109 | 0.0 | 1.6 | 0.00 | 0.00 | 0.00 | 89 | 1017.4 |
| 20260906000750 | 21 | 354 | 0.0 | 1.6 | 0.00 | 0.00 | 0.00 | 89 | 1017.2 |
| 20260906000249 | 21 | 97 | 4.8 | 8.0 | 0.00 | 0.00 | 0.00 | 89 | 1017.1 |
| 20260905235744 | 21 | 62 | 1.6 | 3.2 | 0.00 | 0.00 | 0.00 | 89 | 1017.2 |
| 20260905235244 | 21 | 126 | 3.2 | 3.2 | 0.00 | 0.00 | 0.00 | 89 | 1017.4 |
| 20260905234740 | 22 | 348 | 3.2 | 3.2 | 0.00 | 0.00 | 0.00 | 89 | 1017.2 |
| 20260905234235 | 22 | 306 | 1.6 | 1.6 | 0.00 | 0.00 | 0.00 | 89 | 1017.4 |
| 20260905233730 | 22 | 331 | 4.8 | 8.0 | 0.00 | 0.00 | 0.00 | 88 | 1017.6 |
| 20260905233229 | 22 | 333 | 1.6 | 4.8 | 0.00 | 0.00 | 0.00 | 88 | 1017.2 |
| 20260905232724 | 22 | 348 | 0.0 | 1.6 | 0.00 | 0.00 | 0.00 | 88 | 1017.6 |
| 20260905232220 | 22 | 7 | 3.2 | 4.8 | 0.00 | 0.00 | 0.00 | 88 | 1017.2 |
| 20260905231716 | 22 | 76 | 0.0 | 3.2 | 0.00 | 0.00 | 0.00 | 88 | 1017.1 |
| 20260905231211 | 22 | 268 | 3.2 | 3.2 | 0.00 | 0.00 | 0.00 | 88 | 1017.2 |
| 20260905230708 | 22 | 34 | 3.2 | 3.2 | 0.00 | 0.00 | 0.00 | 88 | 1017.2 |
| 20260905230205 | 22 | 9 | 6.4 | 9.7 | 0.00 | 0.00 | 0.00 | 87 | 1017.0 |
| 20260905225704 | 22 | 339 | 4.8 | 4.8 | 0.00 | 0.00 | 0.00 | 87 | 1017.0 |
| 20260905225200 | 22 | 9 | 3.2 | 4.8 | 0.00 | 0.00 | 0.00 | 87 | 1017.1 |
| 20260905224659 | 22 | 256 | 4.8 | 8.0 | 0.00 | 0.00 | 0.00 | 87 | 1017.0 |
| 20260905224154 | 22 | 8 | 6.4 | 8.0 | 0.00 | 0.00 | 0.00 | 86 | 1017.0 |
| 20260905223651 | 22 | 21 | 3.2 | 3.2 | 0.00 | 0.00 | 0.00 | 86 | 1016.8 |
| 20260905223147 | 22 | 331 | 1.6 | 4.8 | 0.00 | 0.00 | 0.00 | 86 | 1016.9 |
| 20260905222642 | 22 | 32 | 3.2 | 4.8 | 0.00 | 0.00 | 0.00 | 86 | 1016.7 |
| 20260905222137 | 23 | 320 | 3.2 | 3.2 | 0.00 | 0.00 | 0.00 | 86 | 1017.0 |
| 20260905221633 | 23 | 17 | 4.8 | 8.0 | 0.00 | 0.00 | 0.00 | 85 | 1017.0 |
| 20260905221129 | 23 | 25 | 1.6 | 3.2 | 0.00 | 0.00 | 0.00 | 85 | 1017.0 |
| 20260905220625 | 23 | 282 | 4.8 | 4.8 | 0.00 | 0.00 | 0.00 | 85 | 1016.8 |
| 20260905220121 | 23 | 71 | 0.0 | 1.6 | 0.00 | 0.00 | 0.00 | 85 | 1016.8 |
| 20260905215620 | 24 | 233 | 3.2 | 3.2 | 0.00 | 0.00 | 0.00 | 84 | 1016.6 |
| 20260905215116 | 24 | 342 | 0.0 | 1.6 | 0.00 | 0.00 | 0.00 | 84 | 1016.7 |
| 20260905214612 | 25 | 316 | 3.2 | 4.8 | 0.00 | 0.00 | 0.00 | 83 | 1016.6 |
| 20260905214111 | 25 | 346 | 3.2 | 3.2 | 0.00 | 0.00 | 0.00 | 83 | 1016.5 |
| 20260905213607 | 25 | 36 | 1.6 | 1.6 | 0.00 | 0.00 | 0.00 | 83 | 1016.4 |
| 20260905213103 | 25 | 313 | 3.2 | 4.8 | 0.00 | 0.00 | 0.00 | 82 | 1016.3 |
| 20260905212602 | 25 | 81 | 4.8 | 4.8 | 0.00 | 0.00 | 0.00 | 82 | 1016.2 |
| 20260905212102 | 25 | 333 | 9.7 | 12.9 | 0.00 | 0.00 | 0.00 | 81 | 1016.1 |
| 20260905211557 | 25 | 343 | 6.4 | 8.0 | 0.00 | 0.00 | 0.00 | 80 | 1016.1 |
| 20260905211053 | 25 | 286 | 4.8 | 4.8 | 0.00 | 0.00 | 0.00 | 81 | 1016.0 |
| 20260905210548 | 25 | 18 | 1.6 | 3.2 | 0.00 | 0.00 | 0.00 | 81 | 1016.0 |
| 20260905210043 | 25 | 52 | 4.8 | 4.8 | 0.00 | 0.00 | 0.00 | 80 | 1016.0 |
| 20260905205543 | 26 | 110 | 4.8 | 8.0 | 0.00 | 0.00 | 0.00 | 80 | 1016.0 |
| 20260905205042 | 26 | 41 | 3.2 | 4.8 | 0.00 | 0.00 | 0.00 | 79 | 1016.1 |
| 20260905204537 | 26 | 15 | 4.8 | 4.8 | 0.00 | 0.00 | 0.00 | 79 | 1016.1 |
| 20260905204032 | 26 | 359 | 1.6 | 3.2 | 0.00 | 0.00 | 0.00 | 80 | 1016.0 |
| 20260905203532 | 26 | 90 | 3.2 | 3.2 | 0.00 | 0.00 | 0.00 | 81 | 1015.9 |
| 20260905203027 | 25 | 54 | 6.4 | 9.7 | 0.00 | 0.00 | 0.00 | 83 | 1015.8 |
| 20260905202522 | 26 | 120 | 4.8 | 4.8 | 0.00 | 0.00 | 0.00 | 82 | 1015.9 |
| 20260905202018 | 26 | 77 | 4.8 | 4.8 | 0.00 | 0.00 | 0.00 | 80 | 1016.0 |
| 20260905201514 | 27 | 34 | 1.6 | 1.6 | 0.00 | 0.00 | 0.00 | 78 | 1015.9 |
| 20260905201013 | 27 | 23 | 8.0 | 12.9 | 0.00 | 0.00 | 0.00 | 78 | 1016.2 |
| 20260905200509 | 27 | 278 | 9.7 | 12.9 | 0.00 | 0.00 | 0.00 | 77 | 1015.8 |
| 20260905200008 | 27 | 325 | 1.6 | 3.2 | 0.00 | 0.00 | 0.00 | 78 | 1016.0 |
| 20260905195503 | 27 | 55 | 3.2 | 3.2 | 0.00 | 0.00 | 0.00 | 77 | 1016.1 |
| 20260905194958 | 27 | 79 | 3.2 | 3.2 | 0.00 | 0.00 | 0.00 | 76 | 1016.0 |
| 20260905194458 | 27 | 317 | 6.4 | 8.0 | 0.00 | 0.00 | 0.00 | 75 | 1016.1 |
| 20260905193958 | 27 | 19 | 4.8 | 8.0 | 0.00 | 0.00 | 0.00 | 77 | 1016.2 |
| 20260905193458 | 27 | 321 | 6.4 | 8.0 | 0.00 | 0.00 | 0.00 | 77 | 1016.3 |
| 20260905192953 | 27 | 291 | 4.8 | 8.0 | 0.00 | 0.00 | 0.00 | 77 | 1016.3 |
| 20260905192448 | 27 | 34 | 8.0 | 12.9 | 0.00 | 0.00 | 0.00 | 77 | 1016.4 |
| 20260905191945 | 26 | 338 | 4.8 | 4.8 | 0.00 | 0.00 | 0.00 | 79 | 1016.2 |
| 20260905191443 | 26 | 253 | 1.6 | 3.2 | 0.00 | 0.00 | 0.00 | 81 | 1016.4 |
| 20260905190943 | 26 | 350 | 4.8 | 4.8 | 0.00 | 0.00 | 0.00 | 83 | 1016.3 |
| 20260905190441 | 25 | 49 | 1.6 | 1.6 | 0.00 | 0.00 | 0.00 | 84 | 1016.4 |
| 20260905185940 | 25 | 341 | 8.0 | 12.9 | 0.00 | 0.00 | 0.00 | 83 | 1016.5 |
| 20260905185435 | 26 | 122 | 4.8 | 8.0 | 0.00 | 0.00 | 0.00 | 82 | 1016.7 |
| 20260905184933 | 26 | 46 | 1.6 | 3.2 | 0.00 | 0.00 | 0.00 | 83 | 1016.4 |
| 20260905184428 | 25 | 354 | 3.2 | 3.2 | 0.00 | 0.00 | 0.00 | 84 | 1016.5 |
| 20260905183927 | 25 | 259 | 0.0 | 1.6 | 0.00 | 0.00 | 0.00 | 85 | 1016.6 |
| 20260905183422 | 25 | 13 | 3.2 | 3.2 | 0.00 | 0.00 | 0.00 | 85 | 1016.6 |
| 20260905182917 | 25 | 297 | 9.7 | 12.9 | 0.00 | 0.00 | 0.00 | 84 | 1016.8 |
| 20260905182416 | 25 | 9 | 1.6 | 3.2 | 0.00 | 0.00 | 0.00 | 85 | 1016.7 |
| 20260905181912 | 25 | 48 | 4.8 | 8.0 | 0.00 | 0.00 | 0.00 | 86 | 1016.7 |
| 20260905181412 | 25 | 297 | 1.6 | 1.6 | 0.00 | 0.00 | 0.00 | 87 | 1016.6 |
| 20260905180911 | 25 | 274 | 3.2 | 3.2 | 0.00 | 0.00 | 0.00 | 88 | 1016.6 |
| 20260905180406 | 25 | 238 | 0.0 | 0.0 | 0.00 | 0.00 | 0.00 | 88 | 1016.8 |
| 20260905175901 | 25 | 23 | 4.8 | 9.7 | 0.00 | 0.00 | 0.00 | 88 | 1016.8 |
| 20260905175401 | 25 | 325 | 3.2 | 4.8 | 0.00 | 0.00 | 0.00 | 88 | 1016.6 |
| 20260905174901 | 25 | 49 | 4.8 | 4.8 | 0.00 | 0.00 | 0.00 | 88 | 1016.6 |
| 20260905174357 | 25 | 359 | 6.4 | 11.3 | 0.00 | 0.00 | 0.00 | 88 | 1016.4 |
| 20260905173852 | 24 | 24 | 1.6 | 1.6 | 0.00 | 0.00 | 0.00 | 89 | 1016.4 |
| 20260905173348 | 24 | 11 | 4.8 | 8.0 | 0.00 | 0.00 | 0.00 | 89 | 1016.9 |
| 20260905172843 | 24 | 351 | 4.8 | 8.0 | 0.00 | 0.00 | 0.00 | 90 | 1016.6 |
| 20260905172341 | 24 | 311 | 1.6 | 3.2 | 0.00 | 0.00 | 0.00 | 90 | 1016.7 |
| 20260905171837 | 24 | 48 | 1.6 | 1.6 | 0.00 | 0.00 | 0.00 | 89 | 1016.6 |
| 20260905171334 | 24 | 341 | 0.0 | 1.6 | 0.00 | 0.00 | 0.00 | 89 | 1016.7 |
| 20260905170830 | 24 | 303 | 3.2 | 3.2 | 0.00 | 0.00 | 0.00 | 89 | 1016.7 |
| 20260905170326 | 24 | 4 | 0.0 | 1.6 | 0.00 | 0.00 | 0.00 | 90 | 1016.8 |
| 20260905165825 | 23 | 305 | 1.6 | 1.6 | 0.00 | 0.00 | 0.00 | 90 | 1016.9 |
| 20260905165321 | 23 | 211 | 0.0 | 1.6 | 0.00 | 0.00 | 0.00 | 90 | 1016.9 |
| 20260905164820 | 23 | 69 | 3.2 | 3.2 | 0.00 | 0.00 | 0.00 | 90 | 1017.1 |
| 20260905164315 | 23 | 354 | 0.0 | 1.6 | 0.00 | 0.00 | 0.00 | 90 | 1017.0 |
| 20260905163811 | 23 | 265 | 4.8 | 4.8 | 0.00 | 0.00 | 0.00 | 90 | 1017.0 |
| 20260905163307 | 23 | 299 | 1.6 | 1.6 | 0.00 | 0.00 | 0.00 | 90 | 1016.9 |
| 20260905162803 | 23 | 296 | 1.6 | 1.6 | 0.00 | 0.00 | 0.00 | 90 | 1016.8 |
| 20260905162305 | 23 | 312 | 1.6 | 1.6 | 0.00 | 0.00 | 0.00 | 90 | 1016.6 |
| 20260905161757 | 23 | 110 | 4.8 | 4.8 | 0.00 | 0.00 | 0.00 | 90 | 1016.9 |
| 20260905161256 | 23 | 19 | 4.8 | 4.8 | 0.00 | 0.00 | 0.00 | 90 | 1016.9 |
| 20260905160755 | 23 | 290 | 4.8 | 8.0 | 0.00 | 0.00 | 0.00 | 90 | 1016.8 |
| 20260905160255 | 23 | 342 | 8.0 | 11.3 | 0.00 | 0.00 | 0.00 | 90 | 1016.9 |
| 20260905155750 | 23 | 274 | 1.6 | 1.6 | 0.00 | 0.00 | 0.00 | 91 | 1016.9 |
| 20260905155248 | 23 | 316 | 4.8 | 8.0 | 0.00 | 0.00 | 0.00 | 91 | 1016.5 |
| 20260905154743 | 23 | 76 | 3.2 | 3.2 | 0.00 | 0.00 | 0.00 | 91 | 1016.6 |
| 20260905154239 | 23 | 67 | 1.6 | 1.6 | 0.00 | 0.00 | 0.00 | 91 | 1016.7 |
| 20260905153734 | 23 | 343 | 12.9 | 16.1 | 0.00 | 0.00 | 0.00 | 90 | 1016.5 |
| 20260905153230 | 23 | 326 | 9.7 | 11.3 | 0.00 | 0.00 | 0.00 | 91 | 1016.6 |
| 20260905152725 | 23 | 302 | 1.6 | 1.6 | 0.00 | 0.00 | 0.00 | 91 | 1016.6 |
| 20260905152225 | 23 | 323 | 1.6 | 1.6 | 0.00 | 0.00 | 0.00 | 91 | 1016.3 |
| 20260905151724 | 23 | 323 | 4.8 | 4.8 | 0.00 | 0.00 | 0.00 | 91 | 1016.4 |
| 20260905151221 | 23 | 21 | 1.6 | 3.2 | 0.00 | 0.00 | 0.00 | 91 | 1016.2 |
| 20260905150715 | 23 | 256 | 1.6 | 1.6 | 0.00 | 0.00 | 0.00 | 91 | 1016.2 |
| 20260905150214 | 23 | 285 | 0.0 | 0.0 | 0.00 | 0.00 | 0.00 | 91 | 1016.2 |
| 20260905145712 | 23 | 297 | 3.2 | 3.2 | 0.00 | 0.00 | 0.00 | 92 | 1016.1 |
| 20260905145207 | 23 | 258 | 1.6 | 1.6 | 0.00 | 0.00 | 0.00 | 92 | 1016.3 |
| 20260905144706 | 23 | 249 | 3.2 | 4.8 | 0.00 | 0.00 | 0.00 | 92 | 1016.2 |
| 20260905144206 | 23 | 12 | 0.0 | 1.6 | 0.00 | 0.00 | 0.00 | 92 | 1016.2 |
| 20260905143706 | 23 | 297 | 1.6 | 1.6 | 0.00 | 0.00 | 0.00 | 93 | 1016.2 |
| 20260905143206 | 23 | 319 | 4.8 | 8.0 | 0.00 | 0.00 | 0.00 | 93 | 1016.0 |
| 20260905142704 | 23 | 274 | 1.6 | 1.6 | 0.00 | 0.00 | 0.00 | 93 | 1016.1 |
| 20260905142159 | 23 | 18 | 3.2 | 3.2 | 0.00 | 0.00 | 0.00 | 93 | 1016.0 |
| 20260905141654 | 23 | 214 | 1.6 | 1.6 | 0.00 | 0.00 | 0.00 | 93 | 1016.0 |
| 20260905141150 | 23 | 267 | 1.6 | 3.2 | 0.00 | 0.00 | 0.00 | 94 | 1015.9 |
| 20260905140645 | 23 | 288 | 4.8 | 4.8 | 0.00 | 0.00 | 0.00 | 94 | 1016.0 |
| 20260905140144 | 23 | 279 | 6.4 | 8.0 | 0.00 | 0.00 | 0.00 | 94 | 1015.7 |
| 20260905135640 | 22 | 57 | 1.6 | 1.6 | 0.00 | 0.00 | 0.00 | 95 | 1015.8 |
| 20260905135135 | 22 | 283 | 1.6 | 1.6 | 0.00 | 0.00 | 0.00 | 95 | 1015.8 |
| 20260905134630 | 22 | 251 | 0.0 | 1.6 | 0.00 | 0.00 | 0.00 | 96 | 1015.8 |
| 20260905134128 | 22 | 250 | 0.0 | 0.0 | 0.00 | 0.00 | 0.00 | 96 | 1015.8 |
| 20260905133624 | 22 | 31 | 3.2 | 3.2 | 0.00 | 0.00 | 0.00 | 97 | 1015.9 |
| 20260905133124 | 22 | 294 | 3.2 | 3.2 | 0.00 | 0.00 | 0.00 | 97 | 1016.0 |
| 20260905132624 | 22 | 30 | 3.2 | 3.2 | 0.00 | 0.00 | 0.00 | 97 | 1016.0 |
| 20260905132119 | 22 | 339 | 6.4 | 8.0 | 0.00 | 0.00 | 0.00 | 97 | 1016.3 |
| 20260905131614 | 22 | 251 | 0.0 | 1.6 | 0.00 | 0.00 | 0.00 | 97 | 1016.3 |
| 20260905131109 | 22 | 31 | 4.8 | 8.0 | 0.00 | 0.00 | 0.00 | 97 | 1015.9 |
| 20260905130609 | 22 | 324 | 4.8 | 8.0 | 0.00 | 0.00 | 0.00 | 98 | 1015.8 |
| 20260905125603 | 22 | 293 | 1.6 | 1.6 | 0.00 | 0.00 | 0.00 | 98 | 1015.6 |
| 20260905125058 | 22 | 325 | 1.6 | 1.6 | 0.00 | 0.00 | 0.00 | 98 | 1015.6 |